Regional Weather Roundup
Issued by NWS

Home | Current Version | Previous Version | Text Only | Print | Product List | Glossary On
Versions: 1 2 3 4 5 6 7 8 9 10 11 12 13 14 15 16 17 18 19 20 21 22 23 24 25 26 27 28 29 30 31 32 33 34 35 36 37 38 39 40 41 42 43 44 45 46 47 48 49 50
000
ASUS44 KOUN 081900
RWROK

WEATHER ROUNDUP FOR OKLAHOMA
NATIONAL WEATHER SERVICE NORMAN OK
100 PM CST MON FEB 08 2016

NOTE: "FAIR" INDICATES FEW OR NO CLOUDS BELOW 12,000 FEET WITH NO
      SIGNIFICANT WEATHER AND/OR OBSTRUCTIONS TO VISIBILITY.

OKZ001>007-009>012-014-015-017-082000-
NORTHWEST OKLAHOMA AND THE PANHANDLE

CITY           SKY/WX    TMP DP  RH WIND       PRES   REMARKS
GAGE           SUNNY     48  -3  12 N33G43    30.35F
GUYMON         SUNNY     49  14  24 N24G36    30.40F
ENID/WOODRING  SUNNY     48  14  25 NW33G44   30.27F
$$

OKZ016-021>023-033>039-044-045-082000-
SOUTHWEST OKLAHOMA

CITY           SKY/WX    TMP DP  RH WIND       PRES   REMARKS
LAWTON/REGL    SUNNY     52   6  15 NW18G30   30.34F
LAWTON/FT SILL SUNNY     52  10  18 N26G37    30.32F
FREDERICK      SUNNY     54  11  18 NW24G36   30.34F
CLINTON          N/A     50   2  14 NW36G46   30.35F
HOBART         SUNNY     52   8  17 N33G43    30.35F
ALTUS AFB      SUNNY     54  -1  10 NW24G39   30.36F
$$

OKZ018>020-024>031-082000-
CENTRAL OKLAHOMA

CITY           SKY/WX    TMP DP  RH WIND       PRES   REMARKS
OKLAHOMA CITY  SUNNY     49   8  19 NW35G45   30.27F
OKC/WILEY POST   N/A    N/A N/A N/A MISG      30.28F
OKC/TINKER AFB SUNNY     47  11  22 N31G48    30.24F
STILLWATER     SUNNY     47  13  25 NW28G41   30.25F
GUTHRIE        SUNNY     47  10  22 NW21G37   30.28F
$$

OKZ008-013-054>072-082000-
NORTHEAST OKLAHOMA

CITY           SKY/WX    TMP DP  RH WIND       PRES   REMARKS
TULSA          MOSUNNY   48  17  29 NW24G35   30.16F
TULSA/JONES    SUNNY     48  15  26 NW17G33   30.19F
BARTLESVILLE   SUNNY     47  15  27 NW13G22   30.19F
MUSKOGEE       LGT RAIN  48  17  29 NW26G38   30.17F
$$

OKZ032-040>043-046>053-073>077-082000-
SOUTH CENTRAL/SOUTHEAST OKLAHOMA

CITY           SKY/WX    TMP DP  RH WIND       PRES   REMARKS
MCALESTER      LGT RAIN  49  13  23 NW26G40   30.20F
$$




USA.gov is the U.S. government's official web portal to all federal, state and local government web resources and services.